map of BFP home
Great Circle Mapper logo
BFP - Airport
Location
City:  Beaver Falls, Pennsylvania, United States
Name:Beaver County Airport
ICAO:KBVI
IATA:BFP
FAA LID:BVI

Details
Type:Airport (Airfield)
Use:Public/Civil
Latitude:4046'21"N (40.772472)
Longitude:8023'29"W (-80.391443)
Datum:WGS 1984
Elevation:1252 ft (382 m)
Variation:9.07W (WMM2015 magnetic declination)
-0.02 annual change
Runways:1
Longest:4501 × 100 ft (1372 × 30.5 m), paved

Time
Time Zone:UTC-5 (DST-4)
Local Time:

Weather
METAR:KBVI 260047Z 19005KT 10SM CLR 22/12 A3010 RMK LAST
TAF:KBVI 260520Z 2606/2706 18003KT P6SM BKN100
FM261600 21007KT P6SM BKN060
AMD NOT SKED

Related Locations
Nearby:
Farthest:MQZ: 11467 mi / 18455 km
Margaret River [Margaret River Airport], WA, AU

Find:

   beyond  
but within

Other Information
Maps:
NOTAMs:
Links:
Sources:

  
flag of United States
flag of Pennsylvania
  

Airport Diagram

Airport diagram for BFP

Airport diagram PDF

Sectional Chart

Flight Planning
at skyvector.com

Satellite Image

Google Maps Satellite view

 

Copyright © 2004-2016 Karl L. Swartz. All rights reserved.
The Great Circle Mapper name and logo are trademarks of the Great Circle Mapper.
All other trademarks mentioned herein belong to their respective owners.
Please see credits for attibutions and further copyright information.

  Follow gcmap on Facebook Follow gcmap on Twitter Follow gcmap on Google+ GCmap on LinkedIn

hCard Microformat

Geo Microformat